Simultaneous Nadir Overpasses (SNOs) Predictions

Prediction of SNOs between METOP-A and NOAA-19 Satellite Orbit:

Table of predicted SNOs for the next 14.0 days since TLE Epoch: 4/27/2012
Index Date (METOP-A) Time (METOP-A) METOP-A Lat,Lon Date (NOAA-19) Time (NOAA-19) NOAA-19 Lat,Lon Distance(km) Time Diff (sec)
1 05/06/2012 21:35:45 73.48,-150.49 05/06/2012 21:34:35 73.49,-152.14 52.36 70
2 05/06/2012 22:26:34 -73.11, 16.02 05/06/2012 22:25:24 -73.10, 16.02 1.27 70
3 05/06/2012 23:17:15 73.06,-176.76 05/06/2012 23:16:32 73.08,-176.73 3.20 43
4 05/07/2012 00:07:57 -73.04, -9.47 05/07/2012 00:07:28 -73.03, -9.36 3.49 29
5 05/07/2012 00:58:37 73.04, 157.86 05/07/2012 00:58:36 73.02, 157.89 2.16 1
6 05/07/2012 01:49:19 -73.02, -34.85 05/07/2012 01:49:33 -73.02, -34.85 0.19 14
7 05/07/2012 02:39:59 73.02, 132.48 05/07/2012 02:40:41 73.01, 132.40 2.90 42
8 05/07/2012 03:30:42 -72.95, -60.34 05/07/2012 03:31:37 -72.96, -60.23 3.35 55
9 05/07/2012 04:21:29 72.59, 106.25 05/07/2012 04:22:39 72.64, 107.66 47.05 70




NCC Satellite Simultaneous Nadir Overpasses (SNOs) Prediction Service
